QPF
0.01 0.01 0.01 0.02 0.02 0.02 0.01 0.03 0.03 0.01 0.01 0.03 0.05 0.06 0.07 0.08 0.05 0.02 0.01 0.02 0.02 0.02 0.02 0.01 0.01 0.02 0.02 0.02 0.03 0.03 0.03 0.03 0.03 0.03 0.02 0.03 0.02 0.02
0.02 0.01 0.01 0.01 0.01 0.01 0.01 0.01 0.02 0.02 0.02 0.03 0.04 0.04 0.03 0.02 0.01 0.01 0.01 0.01 0.01 0.01 0.01 0.01 0.01 0.01 0.01 0.01 0.02 0.02 0.02 0.02 0.02 0.02 0.02 0.02 0.02 0.02
0.02 0.01 0.01 0.01 0.01 0.00 0.01 0.01 0.01 0.02 0.02 0.03 0.03 0.03 0.02 0.02 0.01 0.01 0.01 0.01 0.01 0.01 0.01 0.00 0.00 0.00 0.01 0.01 0.01 0.01 0.02 0.01 0.01 0.02 0.02 0.02 0.02 0.02
0.01 0.01 0.01 0.01 0.01 0.01 0.01 0.01 0.02 0.02 0.02 0.01 0.02 0.02 0.02 0.01 0.01 0.01 0.00 0.01 0.01 0.01 0.01 0.01 0.00 0.00 0.01 0.01 0.01 0.01 0.01 0.01 0.01 0.01 0.01 0.01 0.02 0.02
0.01 0.00 0.01 0.01 0.01 0.01 0.01 0.01 0.02 0.02 0.02 0.01 0.02 0.03 0.03 0.02 0.01 0.01 0.01 0.01 0.01 0.01 0.01 0.01 0.01 0.01 0.01 0.01 0.01 0.01 0.01 0.01 0.01 0.01 0.01 0.01 0.01 0.01
0.01 0.01 0.01 0.01 0.02 0.02 0.01 0.01 0.01 0.01 0.01 0.01 0.01 0.02 0.03 0.03 0.02 0.02 0.01 0.01 0.01 0.01 0.01 0.01 0.01 0.01 0.01 0.01 0.01 0.01 0.01 0.01 0.01 0.01 0.01 0.01 0.01 0.01
0.01 0.01 0.01 0.01 0.01 0.02 0.01 0.01 0.01 0.01 0.00 0.00 0.00 0.01 0.02 0.04 0.04 0.03 0.02 0.02 0.01 0.01 0.01 0.01 0.01 0.01 0.02 0.02 0.02 0.01 0.00 0.00 0.01 0.01 0.01 0.01 0.02 0.02
0.00 0.00 0.01 0.01 0.01 0.01 0.00 0.01 0.01 0.01 0.01 0.01 0.00 0.01 0.01 0.02 0.03 0.03 0.02 0.02 0.01 0.01 0.01 0.01 0.01 0.00 0.00 0.00 0.01 0.01 0.01 0.01 0.01 0.01 0.01 0.01 0.01 0.01
0.00 0.01 0.01 0.01 0.01 0.01 0.01 0.01 0.01 0.02 0.02 0.01 0.01 0.00 0.01 0.01 0.02 0.03 0.02 0.02 0.02 0.01 0.02 0.02 0.01 0.01 0.00 0.01 0.01 0.00 0.00 0.01 0.01 0.01 0.01 0.01 0.01 0.01
0.01 0.01 0.01 0.01 0.01 0.01 0.01 0.01 0.01 0.02 0.02 0.01 0.01 0.01 0.01 0.02 0.02 0.02 0.02 0.02 0.02 0.02 0.02 0.02 0.01 0.01 0.01 0.01 0.01 0.00 0.00 0.00 0.00 0.00 0.00 0.00 0.00 0.01
0.01 0.01 0.01 0.01 0.01 0.01 0.01 0.01 0.01 0.03 0.04 0.02 0.01 0.01 0.02 0.02 0.02 0.02 0.03 0.03 0.02 0.02 0.02 0.02 0.02 0.01 0.01 0.01 0.01 0.01 0.01 0.01 0.01 0.00 0.01 0.00 0.00 0.00
0.02 0.01 0.01 0.01 0.01 0.01 0.01 0.01 0.01 0.02 0.05 0.04 0.02 0.02 0.02 0.02 0.02 0.02 0.03 0.03 0.03 0.02 0.02 0.04 0.04 0.05 0.05 0.03 0.02 0.02 0.02 0.02 0.01 0.01 0.00 0.00 0.01 0.01
0.02 0.01 0.01 0.01 0.02 0.02 0.02 0.02 0.03 0.03 0.05 0.05 0.04 0.03 0.04 0.03 0.02 0.02 0.02 0.02 0.02 0.02 0.02 0.03 0.03 0.04 0.06 0.05 0.04 0.03 0.03 0.02 0.02 0.02 0.01 0.00 0.00 0.01
0.02 0.01 0.01 0.02 0.02 0.02 0.02 0.03 0.04 0.04 0.04 0.04 0.05 0.05 0.05 0.04 0.03 0.03 0.02 0.01 0.01 0.02 0.02 0.03 0.04 0.04 0.05 0.05 0.05 0.04 0.03 0.03 0.02 0.02 0.02 0.01 0.01 0.01
0.01 0.01 0.01 0.02 0.02 0.03 0.03 0.03 0.04 0.03 0.03 0.03 0.03 0.04 0.04 0.04 0.03 0.02 0.02 0.01 0.01 0.01 0.01 0.03 0.04 0.05 0.06 0.06 0.05 0.05 0.04 0.04 0.03 0.02 0.03 0.03 0.02 0.01
0.01 0.01 0.02 0.01 0.01 0.02 0.02 0.03 0.04 0.03 0.02 0.02 0.02 0.02 0.02 0.01 0.01 0.01 0.01 0.01 0.01 0.01 0.01 0.02 0.02 0.03 0.04 0.05 0.05 0.05 0.06 0.06 0.05 0.04 0.03 0.04 0.03 0.02
0.02 0.01 0.01 0.01 0.01 0.01 0.02 0.03 0.05 0.04 0.02 0.01 0.01 0.01 0.01 0.01 0.01 0.01 0.01 0.01 0.01 0.01 0.02 0.02 0.02 0.02 0.03 0.04 0.05 0.05 0.06 0.06 0.06 0.05 0.04 0.04 0.04 0.04
0.02 0.02 0.01 0.01 0.01 0.01 0.02 0.02 0.04 0.04 0.02 0.01 0.01 0.01 0.01 0.01 0.01 0.01 0.01 0.01 0.01 0.01 0.01 0.02 0.02 0.02 0.02 0.03 0.05 0.05 0.05 0.06 0.06 0.05 0.05 0.04 0.03 0.03
0.02 0.02 0.01 0.01 0.01 0.01 0.01 0.02 0.03 0.03 0.02 0.02 0.01 0.01 0.01 0.01 0.01 0.01 0.00 0.00 0.00 0.00 0.01 0.01 0.02 0.02 0.03 0.03 0.03 0.03 0.04 0.05 0.05 0.06 0.05 0.04 0.03 0.02
0.01 0.01 0.01 0.01 0.01 0.01 0.01 0.02 0.02 0.03 0.03 0.03 0.02 0.02 0.01 0.01 0.01 0.01 0.00 0.01 0.01 0.01 0.01 0.01 0.01 0.03 0.04 0.05 0.04 0.04 0.06 0.06 0.05 0.05 0.05 0.05 0.04 0.04
0.02 0.02 0.02 0.02 0.02 0.02 0.02 0.02 0.02 0.03 0.03 0.03 0.02 0.02 0.01 0.01 0.01 0.01 0.01 0.01 0.01 0.01 0.02 0.02 0.03 0.05 0.04 0.04 0.03 0.03 0.04 0.04 0.03 0.03 0.03 0.04 0.05 0.05
0.02 0.02 0.02 0.02 0.02 0.02 0.03 0.03 0.03 0.03 0.03 0.03 0.03 0.03 0.02 0.01 0.01 0.01 0.01 0.01 0.01 0.01 0.01 0.01 0.01 0.01 0.01 0.02 0.02 0.03 0.03 0.03 0.02 0.02 0.02 0.03 0.04 0.04
0.02 0.02 0.03 0.02 0.02 0.02 0.03 0.03 0.02 0.02 0.02 0.03 0.03 0.03 0.03 0.02 0.02 0.01 0.01 0.01 0.01 0.01 0.02 0.02 0.01 0.01 0.01 0.01 0.02 0.02 0.03 0.04 0.03 0.03 0.04 0.04 0.03 0.03
MSLP
1020.42 1020.54 1020.76 1021.07 1021.47 1021.95 1022.49 1023.05 1023.62 1024.17 1024.69 1025.14 1025.52 1025.80 1025.99 1026.06 1026.03 1025.92 1025.73 1025.51 1025.27 1025.05 1024.86 1024.72 1024.63 1024.59 1024.57 1024.56 1024.53 1024.48 1024.40 1024.28 1024.12 1023.94 1023.73 1023.51 1023.27 1023.02
1020.40 1020.47 1020.61 1020.84 1021.15 1021.56 1022.04 1022.59 1023.20 1023.83 1024.46 1025.07 1025.61 1026.07 1026.42 1026.64 1026.74 1026.70 1026.57 1026.37 1026.13 1025.88 1025.67 1025.50 1025.38 1025.32 1025.28 1025.27 1025.25 1025.21 1025.13 1025.02 1024.87 1024.68 1024.47 1024.24 1023.99 1023.72
1020.37 1020.40 1020.49 1020.64 1020.89 1021.23 1021.66 1022.20 1022.81 1023.50 1024.23 1024.96 1025.65 1026.27 1026.77 1027.13 1027.34 1027.40 1027.34 1027.17 1026.94 1026.70 1026.47 1026.28 1026.14 1026.05 1026.00 1025.97 1025.94 1025.90 1025.83 1025.72 1025.57 1025.39 1025.19 1024.95 1024.71 1024.44
1020.28 1020.31 1020.37 1020.48 1020.68 1020.97 1021.36 1021.87 1022.48 1023.20 1023.98 1024.79 1025.59 1026.33 1026.96 1027.45 1027.77 1027.94 1027.95 1027.86 1027.68 1027.46 1027.24 1027.05 1026.90 1026.80 1026.73 1026.68 1026.64 1026.57 1026.49 1026.37 1026.22 1026.05 1025.85 1025.63 1025.40 1025.15
1020.14 1020.18 1020.24 1020.35 1020.52 1020.77 1021.13 1021.60 1022.20 1022.91 1023.70 1024.55 1025.41 1026.22 1026.94 1027.53 1027.97 1028.24 1028.36 1028.36 1028.27 1028.12 1027.96 1027.80 1027.67 1027.57 1027.49 1027.41 1027.34 1027.25 1027.13 1026.99 1026.82 1026.64 1026.44 1026.23 1026.03 1025.82
1019.96 1020.03 1020.11 1020.23 1020.40 1020.63 1020.96 1021.40 1021.95 1022.61 1023.38 1024.21 1025.07 1025.91 1026.68 1027.35 1027.88 1028.27 1028.51 1028.64 1028.67 1028.64 1028.57 1028.49 1028.41 1028.33 1028.25 1028.16 1028.05 1027.91 1027.75 1027.56 1027.36 1027.16 1026.96 1026.77 1026.59 1026.42
1019.76 1019.86 1019.98 1020.13 1020.31 1020.54 1020.84 1021.23 1021.72 1022.32 1023.01 1023.78 1024.59 1025.41 1026.19 1026.90 1027.51 1028.01 1028.39 1028.67 1028.85 1028.97 1029.04 1029.07 1029.07 1029.04 1028.98 1028.88 1028.73 1028.55 1028.33 1028.09 1027.85 1027.62 1027.41 1027.23 1027.08 1026.95
1019.57 1019.70 1019.86 1020.04 1020.24 1020.47 1020.75 1021.10 1021.52 1022.02 1022.62 1023.29 1024.02 1024.78 1025.53 1026.25 1026.92 1027.51 1028.02 1028.45 1028.81 1029.10 1029.33 1029.49 1029.60 1029.64 1029.62 1029.52 1029.35 1029.13 1028.87 1028.58 1028.30 1028.04 1027.83 1027.66 1027.53 1027.44
1019.42 1019.57 1019.75 1019.96 1020.18 1020.43 1020.69 1021.00 1021.35 1021.77 1022.25 1022.81 1023.43 1024.10 1024.80 1025.50 1026.19 1026.85 1027.47 1028.04 1028.56 1029.01 1029.40 1029.71 1029.94 1030.07 1030.10 1030.03 1029.86 1029.62 1029.33 1029.02 1028.72 1028.45 1028.23 1028.07 1027.97 1027.90
1019.32 1019.46 1019.66 1019.90 1020.15 1020.40 1020.67 1020.94 1021.24 1021.58 1021.97 1022.41 1022.92 1023.49 1024.11 1024.77 1025.45 1026.15 1026.84 1027.51 1028.15 1028.74 1029.27 1029.71 1030.05 1030.28 1030.38 1030.35 1030.22 1029.99 1029.71 1029.40 1029.10 1028.84 1028.64 1028.50 1028.43 1028.39
1019.27 1019.40 1019.60 1019.85 1020.12 1020.40 1020.67 1020.94 1021.21 1021.49 1021.81 1022.16 1022.57 1023.05 1023.58 1024.17 1024.82 1025.51 1026.22 1026.94 1027.66 1028.34 1028.96 1029.50 1029.93 1030.24 1030.42 1030.46 1030.38 1030.21 1029.98 1029.71 1029.46 1029.24 1029.07 1028.97 1028.92 1028.91
1019.27 1019.37 1019.57 1019.82 1020.11 1020.42 1020.71 1020.99 1021.26 1021.52 1021.79 1022.09 1022.43 1022.82 1023.27 1023.79 1024.37 1025.01 1025.70 1026.42 1027.15 1027.86 1028.52 1029.11 1029.61 1029.98 1030.23 1030.35 1030.35 1030.27 1030.12 1029.94 1029.76 1029.61 1029.51 1029.46 1029.45 1029.46
1019.32 1019.39 1019.57 1019.83 1020.13 1020.46 1020.78 1021.09 1021.38 1021.65 1021.91 1022.18 1022.48 1022.81 1023.20 1023.64 1024.15 1024.72 1025.34 1026.00 1026.68 1027.36 1028.01 1028.61 1029.13 1029.55 1029.86 1030.05 1030.15 1030.17 1030.12 1030.06 1029.99 1029.94 1029.91 1029.92 1029.95 1029.98
1019.42 1019.46 1019.62 1019.87 1020.18 1020.52 1020.87 1021.21 1021.53 1021.83 1022.12 1022.40 1022.68 1022.98 1023.32 1023.69 1024.12 1024.60 1025.13 1025.69 1026.29 1026.90 1027.49 1028.05 1028.56 1028.99 1029.34 1029.61 1029.80 1029.92 1030.00 1030.06 1030.11 1030.16 1030.23 1030.30 1030.37 1030.42
1019.58 1019.59 1019.72 1019.94 1020.24 1020.59 1020.96 1021.32 1021.68 1022.02 1022.34 1022.64 1022.93 1023.22 1023.53 1023.86 1024.21 1024.60 1025.03 1025.49 1025.98 1026.49 1027.00 1027.49 1027.96 1028.39 1028.76 1029.08 1029.35 1029.57 1029.77 1029.94 1030.09 1030.25 1030.40 1030.53 1030.64 1030.70
1019.79 1019.77 1019.86 1020.05 1020.32 1020.65 1021.01 1021.39 1021.76 1022.13 1022.48 1022.81 1023.12 1023.43 1023.72 1024.02 1024.32 1024.64 1024.98 1025.34 1025.73 1026.13 1026.55 1026.97 1027.39 1027.79 1028.17 1028.52 1028.85 1029.15 1029.43 1029.69 1029.94 1030.18 1030.39 1030.56 1030.70 1030.77
1020.06 1020.01 1020.06 1020.19 1020.40 1020.68 1021.01 1021.36 1021.73 1022.10 1022.47 1022.82 1023.16 1023.47 1023.77 1024.06 1024.33 1024.61 1024.89 1025.18 1025.48 1025.80 1026.14 1026.50 1026.86 1027.23 1027.61 1027.97 1028.33 1028.68 1029.02 1029.35 1029.66 1029.94 1030.19 1030.39 1030.54 1030.62
1020.38 1020.29 1020.28 1020.35 1020.48 1020.68 1020.94 1021.23 1021.56 1021.91 1022.26 1022.61 1022.96 1023.29 1023.59 1023.88 1024.15 1024.41 1024.66 1024.91 1025.17 1025.44 1025.74 1026.05 1026.39 1026.73 1027.10 1027.47 1027.84 1028.21 1028.58 1028.93 1029.26 1029.56 1029.82 1030.04 1030.18 1030.26
1020.72 1020.59 1020.52 1020.50 1020.54 1020.65 1020.80 1021.01 1021.26 1021.55 1021.86 1022.18 1022.52 1022.84 1023.15 1023.45 1023.72 1023.99 1024.24 1024.49 1024.75 1025.01 1025.30 1025.60 1025.92 1026.27 1026.63 1026.99 1027.37 1027.74 1028.11 1028.46 1028.79 1029.09 1029.35 1029.55 1029.69 1029.77
1021.06 1020.89 1020.75 1020.64 1020.59 1020.57 1020.62 1020.72 1020.86 1021.06 1021.30 1021.57 1021.86 1022.17 1022.47 1022.77 1023.06 1023.34 1023.62 1023.89 1024.17 1024.46 1024.77 1025.10 1025.44 1025.79 1026.16 1026.53 1026.91 1027.28 1027.63 1027.97 1028.29 1028.57 1028.81 1029.00 1029.14 1029.22
1021.35 1021.15 1020.95 1020.76 1020.60 1020.48 1020.41 1020.39 1020.42 1020.52 1020.66 1020.85 1021.08 1021.34 1021.61 1021.90 1022.19 1022.49 1022.79 1023.11 1023.43 1023.77 1024.12 1024.49 1024.88 1025.27 1025.66 1026.05 1026.43 1026.79 1027.14 1027.46 1027.76 1028.02 1028.25 1028.44 1028.57 1028.66
1021.58 1021.34 1021.09 1020.84 1020.60 1020.38 1020.20 1020.07 1019.99 1019.98 1020.02 1020.12 1020.26 1020.45 1020.67 1020.93 1021.20 1021.50 1021.82 1022.17 1022.54 1022.93 1023.34 1023.77 1024.20 1024.64 1025.07 1025.49 1025.88 1026.26 1026.60 1026.92 1027.20 1027.46 1027.68 1027.87 1028.02 1028.14
1021.69 1021.44 1021.16 1020.86 1020.56 1020.27 1020.01 1019.79 1019.62 1019.50 1019.44 1019.43 1019.49 1019.59 1019.74 1019.93 1020.17 1020.45 1020.77 1021.13 1021.52 1021.96 1022.42 1022.90 1023.40 1023.88 1024.36 1024.82 1025.24 1025.63 1025.99 1026.31 1026.60 1026.87 1027.10 1027.30 1027.48 1027.62
Thickness
5672 5671 5670 5669 5668 5667 5665 5662 5657 5651 5650 5651 5651 5652 5652 5652 5651 5650 5649 5649 5648 5647 5646 5645 5644 5643 5642 5641 5640 5638 5637 5636 5635 5634 5633 5632 5631 5629
5668 5667 5666 5666 5665 5664 5662 5660 5658 5654 5649 5649 5648 5649 5648 5648 5647 5646 5646 5645 5644 5643 5642 5641 5640 5638 5637 5636 5634 5633 5632 5631 5630 5629 5627 5626 5625 5623
5664 5663 5662 5662 5661 5659 5658 5657 5655 5652 5647 5645 5645 5645 5643 5643 5642 5641 5641 5640 5639 5638 5637 5636 5634 5633 5632 5630 5629 5628 5626 5625 5624 5623 5621 5620 5619 5618
5659 5658 5657 5657 5656 5655 5653 5652 5650 5649 5645 5641 5639 5639 5638 5638 5637 5636 5636 5634 5633 5632 5631 5630 5629 5627 5626 5624 5623 5622 5620 5619 5618 5617 5615 5614 5613 5612
5655 5654 5653 5652 5650 5649 5649 5647 5646 5645 5642 5638 5635 5633 5632 5631 5630 5630 5629 5628 5628 5626 5625 5624 5623 5621 5620 5618 5617 5616 5614 5613 5612 5610 5609 5608 5607 5606
5651 5650 5649 5647 5646 5645 5643 5642 5641 5638 5635 5632 5629 5627 5626 5625 5623 5621 5621 5620 5620 5620 5619 5618 5616 5615 5613 5612 5611 5609 5608 5607 5605 5604 5603 5602 5601 5600
5646 5645 5644 5644 5643 5641 5639 5637 5635 5631 5628 5625 5622 5620 5618 5616 5615 5615 5614 5613 5613 5613 5611 5611 5609 5608 5607 5606 5604 5603 5601 5600 5599 5598 5597 5596 5595 5593
5640 5639 5639 5638 5637 5636 5635 5634 5632 5628 5623 5620 5617 5615 5613 5612 5610 5608 5605 5604 5604 5605 5603 5603 5602 5601 5601 5600 5599 5598 5596 5594 5593 5592 5590 5589 5588 5587
5635 5633 5633 5632 5631 5629 5628 5627 5626 5625 5623 5619 5615 5612 5610 5608 5605 5601 5599 5597 5597 5598 5596 5595 5595 5595 5595 5595 5594 5593 5591 5590 5588 5586 5585 5583 5582 5581
5630 5628 5626 5625 5624 5623 5621 5619 5618 5617 5616 5615 5613 5611 5609 5606 5602 5599 5596 5592 5591 5591 5590 5587 5588 5588 5590 5589 5589 5588 5586 5585 5583 5581 5579 5577 5576 5574
5624 5623 5621 5619 5620 5618 5615 5612 5610 5610 5610 5609 5608 5606 5603 5600 5597 5592 5587 5584 5582 5582 5582 5580 5580 5580 5582 5583 5583 5582 5580 5579 5577 5575 5574 5572 5570 5568
5618 5617 5616 5615 5614 5613 5609 5606 5604 5603 5602 5601 5599 5598 5595 5593 5590 5588 5584 5579 5576 5575 5576 5574 5573 5572 5573 5576 5576 5576 5574 5573 5571 5569 5567 5566 5563 5561
5612 5611 5610 5610 5608 5606 5604 5602 5601 5599 5595 5593 5591 5589 5588 5586 5584 5582 5580 5577 5573 5571 5572 5569 5566 5564 5564 5566 5568 5569 5568 5566 5564 5563 5561 5559 5557 5555
5608 5606 5605 5604 5602 5600 5598 5597 5595 5592 5588 5585 5582 5581 5579 5578 5578 5576 5574 5573 5571 5570 5568 5565 5562 5559 5557 5557 5559 5561 5560 5559 5557 5556 5555 5553 5550 5549
5603 5602 5599 5597 5595 5593 5592 5590 5587 5583 5581 5577 5575 5575 5574 5573 5571 5569 5567 5565 5564 5563 5562 5560 5558 5555 5553 5551 5551 5552 5551 5552 5551 5549 5547 5546 5544 5542
5596 5595 5593 5590 5587 5585 5583 5581 5579 5577 5575 5572 5571 5569 5567 5565 5563 5561 5559 5557 5555 5555 5554 5553 5551 5550 5547 5546 5544 5544 5543 5542 5543 5542 5540 5539 5537 5536
5588 5585 5582 5580 5578 5576 5574 5573 5572 5570 5568 5566 5564 5562 5560 5558 5557 5554 5552 5549 5547 5546 5545 5545 5544 5543 5542 5540 5537 5537 5536 5535 5535 5533 5531 5530 5530 5529
5580 5576 5574 5573 5572 5570 5568 5566 5565 5563 5562 5560 5558 5556 5554 5552 5550 5547 5545 5543 5541 5540 5538 5536 5534 5532 5532 5533 5533 5531 5529 5528 5527 5525 5523 5521 5521 5521
5571 5569 5567 5566 5565 5564 5562 5560 5559 5558 5556 5553 5551 5549 5548 5545 5543 5541 5538 5536 5535 5533 5532 5529 5526 5524 5522 5524 5527 5525 5522 5521 5518 5516 5514 5513 5513 5515
5563 5562 5560 5559 5558 5557 5555 5553 5552 5550 5548 5546 5544 5542 5541 5538 5536 5534 5532 5529 5528 5526 5524 5521 5520 5519 5517 5517 5516 5516 5515 5513 5511 5509 5507 5506 5505 5506
5556 5554 5553 5552 5551 5549 5548 5546 5544 5542 5541 5539 5537 5535 5534 5531 5529 5527 5525 5523 5520 5518 5517 5516 5516 5513 5510 5507 5505 5506 5505 5505 5505 5503 5501 5498 5496 5496
5548 5547 5546 5544 5543 5541 5540 5538 5537 5535 5533 5531 5530 5529 5527 5524 5522 5520 5518 5516 5514 5512 5511 5510 5506 5503 5500 5498 5498 5497 5496 5495 5495 5495 5493 5492 5489 5488
5539 5538 5537 5536 5535 5533 5531 5530 5528 5527 5526 5524 5522 5521 5519 5517 5515 5513 5511 5509 5507 5505 5503 5500 5497 5494 5492 5491 5489 5488 5486 5485 5484 5484 5484 5483 5482 5482